This demonstration page uses our WeatherBlox Daily Observations layout. Learn more.

40.92945, -100.16068

Hourly Observations for March 15, 2015

Temp ( °F °C ) Dew Point ( °F °C ) Humidity (%) Winds ( mph kmh ) Pressure ( in mb ) Visibility ( mi km ) Precip ( " mm )
12:15 am 00:15 Clear 49 9.3 17 -8.5 28 28 S 14 22 30.18 1022 10 16.0934 N/A
12:35 am 00:35 Clear 50 9.9 16 -8.7 26 26 S 17 28 30.18 1022 10 16.0934 N/A
12:55 am 00:55 Clear 50 10 15 -9.5 25 25 S 17 28 30.15 1021 10 16.0934 N/A
1:15 am 01:15 Clear 49 9.7 15 -9.2 26 26 S 15 24 30.15 1021 10 16.0934 N/A
1:35 am 01:35 Clear 49 9.5 15 -9.5 25 25 SSW 14 22 30.15 1021 10 16.0934 N/A
1:55 am 01:55 Clear 50 10.2 15 -9.6 24 24 SSW 13 20 30.15 1021 10 16.0934 N/A
2:15 am 02:15 Clear 50 9.9 15 -9.6 24 24 SSW 21 33 30.15 1021 10 16.0934 N/A
2:35 am 02:35 Clear 50 10.2 15 -9.6 24 24 SSW 21 33 30.15 1021 10 16.0934 N/A
2:55 am 02:55 Clear 48 8.7 15 -9.5 27 27 SW 17 28 30.15 1021 10 16.0934 N/A
3:15 am 03:15 Clear 48 9.1 15 -9.6 26 26 SSW 21 33 30.15 1021 10 16.0934 N/A
3:35 am 03:35 Clear 48 8.8 15 -9.4 27 27 SW 17 28 30.15 1021 10 16.0934 N/A
3:55 am 03:55 Clear 48 9.1 15 -9.4 26 26 SW 17 28 30.15 1021 10 16.0934 N/A
4:15 am 04:15 Clear 49 9.5 15 -9.5 25 25 SW 20 31 30.15 1021 10 16.0934 N/A
4:35 am 04:35 Clear 49 9.5 15 -9.5 25 25 SW 13 20 30.12 1020 10 16.0934 N/A
4:55 am 04:55 Clear 49 9.2 16 -9.1 27 27 SSW 17 28 30.12 1020 10 16.0934 N/A
5:15 am 05:15 Clear 48 9.1 16 -9.1 27 27 SW 22 35 30.12 1020 10 16.0934 N/A
5:35 am 05:35 Clear 48 9.1 16 -9 27 27 SSW 15 24 30.12 1020 10 16.0934 N/A
5:55 am 05:55 Clear 49 9.5 16 -8.7 27 27 SW 14 22 30.12 1020 10 16.0934 N/A
6:15 am 06:15 Clear 49 9.4 17 -8.5 28 28 SW 15 24 30.12 1020 10 16.0934 N/A
6:35 am 06:35 Clear 49 9.3 17 -8.4 28 28 SW 14 22 30.12 1020 10 16.0934 N/A
6:55 am 06:55 Clear 49 9.2 17 -8.3 28 28 W 10 17 30.15 1021 10 16.0934 N/A
7:15 am 07:15 Clear 47 8.3 17 -8.1 31 31 SW 13 20 30.12 1020 10 16.0934 N/A
7:35 am 07:35 Clear 47 8.1 18 -8 31 31 WSW 7 11 30.12 1020 10 16.0934 N/A
7:55 am 07:55 Sunny 45 7.2 17 -8.1 33 33 NW 6 9 30.18 1022 10 16.0934 N/A
8:15 am 08:15 Sunny 46 7.6 18 -8 32 32 WSW 5 7 30.12 1020 10 16.0934 N/A
8:55 am 08:55 Sunny 48 8.8 19 -7.1 32 32 WSW 7 11 30.12 1020 10 16.0934 N/A
9:15 am 09:15 Sunny 50 10.1 20 -6.6 31 31 WSW 8 13 30.12 1020 10 16.0934 N/A
9:35 am 09:35 Sunny 51 10.6 21 -6.2 30 30 NW 14 22 30.15 1021 10 16.0934 N/A
9:55 am 09:55 Sunny 53 11.9 21 -5.9 29 29 WNW 9 15 30.12 1020 10 16.0934 N/A
10:15 am 10:15 Sunny 55 12.6 22 -5.8 27 27 WSW 10 17 30.12 1020 10 16.0934 N/A
10:35 am 10:35 Sunny 56 13.2 22 -5.5 27 27 SW 13 20 30.09 1019 10 16.0934 N/A
10:55 am 10:55 Sunny 60 15.7 23 -4.8 24 24 SW 20 31 30.06 1018 10 16.0934 N/A
11:15 am 11:15 Sunny 63 17.2 24 -4.7 22 22 WSW 12 19 30.06 1018 10 16.0934 N/A
11:35 am 11:35 Sunny 66 18.7 24 -4.5 20 20 WSW 13 20 30.03 1017 10 16.0934 N/A
11:55 am 11:55 Sunny 68 20.2 23 -4.9 18 18 SW 18 30 30.03 1017 10 16.0934 N/A
12:15 pm 12:15 Sunny 71 21.5 23 -5.1 16 16 SW 17 28 30 1016 10 16.0934 N/A
12:35 pm 12:35 Sunny 72 22.3 23 -5.1 16 16 WSW 16 26 30 1016 10 16.0934 N/A
12:55 pm 12:55 Sunny 73 23 23 -5 15 15 WSW 15 24 30 1016 10 16.0934 N/A
1:15 pm 13:15 Sunny 75 23.8 23 -4.9 14 14 SW 10 17 30 1016 10 16.0934 N/A
1:35 pm 13:35 Sunny 77 24.9 23 -4.9 13 13 WSW 15 24 29.94 1014 10 16.0934 N/A
1:55 pm 13:55 Sunny 78 25.8 24 -4.5 13 13 WSW 16 26 29.94 1014 10 16.0934 N/A
2:15 pm 14:15 Sunny 79 26.1 24 -4.4 13 13 WSW 10 17 29.91 1013 10 16.0934 N/A
2:35 pm 14:35 Sunny 80 26.7 24 -4.5 12 12 WSW 8 13 29.91 1013 10 16.0934 N/A
2:55 pm 14:55 Sunny 82 27.7 24 -4.5 12 12 SW 15 24 29.88 1012 10 16.0934 N/A
3:15 pm 15:15 Sunny 82 27.9 24 -4.4 12 12 SW 16 26 29.88 1012 10 16.0934 N/A
3:35 pm 15:35 Sunny 83 28.6 24 -4.2 11 11 WSW 15 24 29.88 1012 10 16.0934 N/A
3:55 pm 15:55 Sunny 84 28.7 24 -4.4 11 11 SW 15 24 29.88 1012 10 16.0934 N/A
4:15 pm 16:15 Sunny 85 29.3 24 -4.5 11 11 WSW 14 22 29.88 1012 10 16.0934 N/A
4:35 pm 16:35 Sunny 85 29.4 24 -4.6 10 10 WSW 13 20 29.85 1011 10 16.0934 N/A
4:55 pm 16:55 Sunny 86 29.8 23 -4.9 10 10 SW 17 28 29.85 1011 10 16.0934 N/A
5:15 pm 17:15 Sunny 86 30 22 -5.7 9 9 SW 23 37 29.85 1011 10 16.0934 N/A
5:35 pm 17:35 Sunny 86 29.9 20 -6.7 9 9 WSW 14 22 29.85 1011 10 16.0934 N/A
5:55 pm 17:55 Sunny 86 30 18 -7.7 8 8 WSW 10 17 29.85 1011 10 16.0934 N/A
6:15 pm 18:15 Sunny 85 29.7 14 -9.9 7 7 SW 13 20 29.85 1011 10 16.0934 N/A
6:35 pm 18:35 Sunny 85 29.2 14 -10.1 7 7 SW 12 19 29.83 1010 10 16.0934 N/A
6:55 pm 18:55 Sunny 83 28.1 15 -9.2 8 8 SW 8 13 29.85 1011 10 16.0934 N/A
7:15 pm 19:15 Sunny 81 27.2 10 -12 7 7 SSW 9 15 29.85 1011 10 16.0934 N/A
7:35 pm 19:35 Sunny 77 25.2 9 -12.8 7 7 SSW 10 17 29.88 1012 10 16.0934 N/A
7:55 pm 19:55 Clear 72 22.3 9 -12.7 9 9 SSW 9 15 29.91 1013 10 16.0934 N/A
8:15 pm 20:15 Clear 70 20.9 9 -12.9 9 9 SSW 10 17 29.91 1013 10 16.0934 N/A
8:35 pm 20:35 Clear 67 19.2 9 -12.8 10 10 SSW 10 17 29.94 1014 10 16.0934 N/A
8:55 pm 20:55 Clear 65 18.1 9 -12.7 11 11 SSW 10 17 29.94 1014 10 16.0934 N/A
9:15 pm 21:15 Clear 68 20 10 -12 10 10 SSW 15 24 29.91 1013 10 16.0934 N/A
9:35 pm 21:35 Clear 70 21.3 11 -11.5 10 10 SSW 16 26 29.91 1013 10 16.0934 N/A
9:55 pm 21:55 Clear 69 20.5 12 -11.1 11 11 SSW 15 24 29.91 1013 10 16.0934 N/A
10:15 pm 22:15 Clear 67 19.7 13 -10.7 12 12 SSW 15 24 29.91 1013 10 16.0934 N/A
10:35 pm 22:35 Clear 68 20 15 -9.5 13 13 SSW 20 31 29.91 1013 10 16.0934 N/A
10:55 pm 22:55 Clear 66 19.1 16 -8.9 14 14 SSW 18 30 29.94 1014 10 16.0934 N/A
11:15 pm 23:15 Clear 66 18.7 18 -7.9 16 16 SSW 18 30 29.94 1014 10 16.0934 N/A
11:35 pm 23:35 Clear 65 18.2 19 -7.2 17 17 SSW 20 31 29.94 1014 10 16.0934 N/A
11:55 pm 23:55 Clear 64 17.9 20 -6.6 18 18 SSW 20 31 29.94 1014 10 16.0934 N/A

Powered by AerisWeather